• în România
  • Lista ţărilor
  • Pe 7 zile
  • Temperatura apei
  • Hartă satelitară
  • Meteo pe hartă
  • Widget-uri
  • user-avatar
    Intrare

    Meteo pe oră la Salzburg

    Astăzi, 15 Octombrie, Luni

    Timp Temperatura Precipitaţii Vânt Presiune Umiditate
    00:00 +4°C° 0 mm 2 m/s 626 mmHg 84%
    01:00 +4°C° 0 mm 2 m/s 626 mmHg 86%
    02:00 +4°C° 0 mm 2 m/s 626 mmHg 86%
    03:00 +4°C° 0 mm 2 m/s 626 mmHg 86%
    04:00 +3°C° 0 mm 2 m/s 626 mmHg 86%
    05:00 +3°C° 0 mm 2 m/s 626 mmHg 85%
    06:00 +3°C° 0 mm 2 m/s 626 mmHg 85%
    07:00 +3°C° 0 mm 2 m/s 626 mmHg 84%
    08:00 +6°C° 0 mm 2 m/s 627 mmHg 76%
    09:00 +8°C° 0 mm 2 m/s 628 mmHg 68%
    10:00 +10°C° 0 mm 2 m/s 629 mmHg 59%
    11:00 +12°C° 0 mm 2 m/s 629 mmHg 57%
    12:00 +13°C° 0 mm 2 m/s 629 mmHg 55%
    13:00 +14°C° 0 mm 2 m/s 629 mmHg 53%
    14:00 +13°C° 0 mm 2 m/s 629 mmHg 58%
    15:00 +13°C° 0 mm 2 m/s 629 mmHg 63%
    16:00 +12°C° 0 mm 2 m/s 628 mmHg 67%
    17:00 +9°C° 0 mm 2 m/s 628 mmHg 74%
    18:00 +7°C° 0 mm 2 m/s 627 mmHg 80%
    19:00 +5°C° 0 mm 2 m/s 627 mmHg 86%
    20:00 +5°C° 0 mm 2 m/s 627 mmHg 87%
    21:00 +4°C° 0 mm 2 m/s 627 mmHg 87%
    22:00 +4°C° 0 mm 2 m/s 627 mmHg 88%
    23:00 +4°C° 0 mm 2 m/s 627 mmHg 88%

    Mâine, 16 Octombrie, Marţi

    Timp Temperatura Precipitaţii Vânt Presiune Umiditate
    00:00 +3°C° 0 mm 2 m/s 627 mmHg 89%
    01:00 +3°C° 0 mm 2 m/s 627 mmHg 89%
    02:00 +3°C° 0 mm 2 m/s 627 mmHg 89%
    03:00 +3°C° 0 mm 2 m/s 626 mmHg 88%
    04:00 +3°C° 0 mm 2 m/s 626 mmHg 88%
    05:00 +4°C° 0 mm 1 m/s 627 mmHg 86%
    06:00 +4°C° 0 mm 1 m/s 627 mmHg 85%
    07:00 +4°C° 0 mm 1 m/s 627 mmHg 84%
    08:00 +7°C° 0 mm 1 m/s 628 mmHg 75%
    09:00 +9°C° 0 mm 1 m/s 629 mmHg 66%
    10:00 +12°C° 0 mm 1 m/s 630 mmHg 57%
    11:00 +13°C° 0 mm 1 m/s 630 mmHg 55%
    12:00 +14°C° 0 mm 1 m/s 630 mmHg 53%
    13:00 +15°C° 0 mm 1 m/s 631 mmHg 51%
    14:00 +14°C° 0 mm 1 m/s 630 mmHg 57%
    15:00 +13°C° 0 mm 1 m/s 630 mmHg 63%
    16:00 +12°C° 0 mm 1 m/s 630 mmHg 69%
    17:00 +10°C° 0 mm 1 m/s 629 mmHg 76%
    18:00 +8°C° 0 mm 1 m/s 628 mmHg 84%
    19:00 +6°C° 0 mm 1 m/s 628 mmHg 91%
    20:00 +6°C° 0 mm 1 m/s 628 mmHg 91%
    21:00 +6°C° 0 mm 1 m/s 628 mmHg 91%
    22:00 +6°C° 0 mm 1 m/s 628 mmHg 91%
    23:00 +5°C° 0 mm 1 m/s 628 mmHg 90%

    Poimâine, 17 Octombrie, Miercuri

    Timp Temperatura Precipitaţii Vânt Presiune Umiditate
    00:00 +5°C° 0 mm 1 m/s 628 mmHg 90%
    01:00 +5°C° 0 mm 1 m/s 628 mmHg 90%
    02:00 +5°C° 0 mm 1 m/s 627 mmHg 89%
    03:00 +5°C° 0 mm 1 m/s 627 mmHg 89%
    04:00 +5°C° 0 mm 1 m/s 627 mmHg 88%
    05:00 +5°C° 0 mm 1 m/s 627 mmHg 87%
    06:00 +5°C° 0 mm 1 m/s 627 mmHg 86%
    07:00 +5°C° 0 mm 1 m/s 627 mmHg 86%
    08:00 +7°C° 0 mm 1 m/s 628 mmHg 77%
    09:00 +10°C° 0 mm 1 m/s 629 mmHg 68%
    10:00 +12°C° 0 mm 1 m/s 630 mmHg 59%
    11:00 +13°C° 0 mm 1 m/s 630 mmHg 58%
    12:00 +14°C° 0 mm 1 m/s 630 mmHg 57%
    13:00 +15°C° 0 mm 1 m/s 630 mmHg 56%
    14:00 +14°C° 0 mm 1 m/s 629 mmHg 62%
    15:00 +13°C° 0 mm 1 m/s 629 mmHg 68%
    16:00 +12°C° 0 mm 1 m/s 628 mmHg 74%
    17:00 +11°C° 0.1 mm 1 m/s 628 mmHg 81%
    18:00 +9°C° 0.1 mm 1 m/s 627 mmHg 88%
    19:00 +7°C° 0.1 mm 1 m/s 627 mmHg 94%
    20:00 +7°C° 0 mm 1 m/s 627 mmHg 94%
    21:00 +7°C° 0 mm 1 m/s 627 mmHg 95%
    22:00 +7°C° 0 mm 1 m/s 627 mmHg 95%
    23:00 +6°C° 0 mm 1 m/s 627 mmHg 95%

    18 Octombrie, Joi

    Timp Temperatura Precipitaţii Vânt Presiune Umiditate
    00:00 +6°C° 0 mm 1 m/s 627 mmHg 94%
    01:00 +6°C° 0 mm 1 m/s 627 mmHg 94%
    02:00 +6°C° 0 mm 1 m/s 626 mmHg 94%
    03:00 +6°C° 0 mm 1 m/s 626 mmHg 94%
    04:00 +5°C° 0 mm 1 m/s 626 mmHg 94%
    05:00 +5°C° 0 mm 1 m/s 626 mmHg 93%
    06:00 +5°C° 0 mm 1 m/s 626 mmHg 93%
    07:00 +5°C° 0 mm 1 m/s 626 mmHg 93%
    08:00 +8°C° 0 mm 1 m/s 627 mmHg 85%
    09:00 +10°C° 0 mm 1 m/s 628 mmHg 77%
    10:00 +12°C° 0 mm 1 m/s 629 mmHg 70%
    11:00 +13°C° 0 mm 1 m/s 629 mmHg 67%
    12:00 +13°C° 0 mm 1 m/s 629 mmHg 65%
    13:00 +14°C° 0 mm 1 m/s 629 mmHg 62%
    14:00 +13°C° 0.7 mm 1 m/s 629 mmHg 68%
    15:00 +13°C° 0.7 mm 1 m/s 628 mmHg 75%
    16:00 +12°C° 0.7 mm 1 m/s 628 mmHg 81%
    17:00 +10°C° 0.4 mm 1 m/s 628 mmHg 86%
    18:00 +8°C° 0.4 mm 0 m/s 628 mmHg 90%
    19:00 +6°C° 0.4 mm 0 m/s 627 mmHg 95%
    20:00 +6°C° 0 mm 0 m/s 627 mmHg 95%
    21:00 +6°C° 0 mm 0 m/s 628 mmHg 95%
    22:00 +6°C° 0 mm 0 m/s 628 mmHg 95%
    23:00 +5°C° 0 mm 0 m/s 628 mmHg 95%

    19 Octombrie, Vineri

    Timp Temperatura Precipitaţii Vânt Presiune Umiditate
    00:00 +5°C° 0 mm 0 m/s 628 mmHg 94%
    01:00 +4°C° 0 mm 0 m/s 628 mmHg 94%
    02:00 +4°C° 0 mm 0 m/s 627 mmHg 94%
    03:00 +4°C° 0 mm 0 m/s 627 mmHg 94%
    04:00 +5°C° 0 mm 1 m/s 627 mmHg 94%
    05:00 +5°C° 0 mm 1 m/s 627 mmHg 94%
    06:00 +5°C° 0 mm 1 m/s 628 mmHg 94%
    07:00 +5°C° 0 mm 1 m/s 628 mmHg 94%
    08:00 +7°C° 0 mm 1 m/s 628 mmHg 88%
    09:00 +9°C° 0 mm 1 m/s 629 mmHg 81%
    10:00 +11°C° 0 mm 1 m/s 630 mmHg 74%
    11:00 +12°C° 0 mm 1 m/s 630 mmHg 71%
    12:00 +12°C° 0 mm 1 m/s 630 mmHg 67%
    13:00 +13°C° 0 mm 1 m/s 631 mmHg 63%
    14:00 +12°C° 0 mm 1 m/s 630 mmHg 67%
    15:00 +12°C° 0 mm 1 m/s 630 mmHg 72%
    16:00 +11°C° 0 mm 1 m/s 630 mmHg 76%
    17:00 +9°C° 0 mm 1 m/s 629 mmHg 82%
    18:00 +8°C° 0 mm 1 m/s 629 mmHg 88%
    19:00 +5°C° 0 mm 0 m/s 629 mmHg 94%
    20:00 +5°C° 0 mm 0 m/s 629 mmHg 94%
    21:00 +4°C° 0 mm 0 m/s 629 mmHg 94%
    22:00 +4°C° 0 mm 0 m/s 629 mmHg 95%
    23:00 +4°C° 0 mm 0 m/s 629 mmHg 95%

    20 Octombrie, Sâmbătă

    Timp Temperatura Precipitaţii Vânt Presiune Umiditate
    00:00 +3°C° 0 mm 0 m/s 629 mmHg 95%
    01:00 +3°C° 0 mm 0 m/s 629 mmHg 95%
    02:00 +3°C° 0 mm 0 m/s 629 mmHg 95%
    03:00 +3°C° 0 mm 0 m/s 629 mmHg 95%
    04:00 +3°C° 0 mm 0 m/s 629 mmHg 95%
    05:00 +3°C° 0 mm 0 m/s 629 mmHg 96%
    06:00 +4°C° 0 mm 1 m/s 629 mmHg 96%
    07:00 +4°C° 0 mm 1 m/s 630 mmHg 96%
    08:00 +6°C° 0 mm 1 m/s 631 mmHg 89%
    09:00 +8°C° 0 mm 1 m/s 631 mmHg 83%
    10:00 +9°C° 0 mm 1 m/s 632 mmHg 76%
    11:00 +10°C° 0 mm 1 m/s 632 mmHg 72%
    12:00 +11°C° 0 mm 1 m/s 632 mmHg 69%
    13:00 +11°C° 0 mm 1 m/s 633 mmHg 65%
    14:00 +11°C° 0 mm 1 m/s 632 mmHg 70%
    15:00 +10°C° 0 mm 1 m/s 632 mmHg 75%
    16:00 +9°C° 0 mm 1 m/s 632 mmHg 80%
    17:00 +8°C° 0 mm 1 m/s 632 mmHg 85%
    18:00 +7°C° 0 mm 1 m/s 632 mmHg 90%
    19:00 +6°C° 0 mm 1 m/s 631 mmHg 95%
    20:00 +5°C° 0 mm 1 m/s 632 mmHg 95%
    21:00 +5°C° 0 mm 1 m/s 632 mmHg 95%
    22:00 +5°C° 0 mm 1 m/s 632 mmHg 95%
    23:00 +4°C° 0 mm 1 m/s 632 mmHg 95%
    Arată mai mult